When you browse on this site, cookies collect data to enhance your experience and personalize the content and advertising you see.
Visit our Privacy Policy to learn more. By continuing to use the site, you agree to this use of cookies and data.
  • In Czech Republic
  • List of Countries
  • For 7 days
  • Water Temperature
  • Satellite Maps
  • Weather Map
  • Weather Widgets
  • user-avatar
    Login

    Hourly Weather Edinburgh

    Today, 20 January, Sunday

    Time Temperature Precipitation Wind Pressure Humidity
    00:00 +2°C° 0 mm 0 mps 757 mmHg 89%
    01:00 +2°C° 0 mm 0 mps 757 mmHg 89%
    02:00 +2°C° 0 mm 0 mps 757 mmHg 90%
    03:00 +2°C° 0 mm 0 mps 757 mmHg 90%
    04:00 +1°C° 0 mm 0 mps 757 mmHg 91%
    05:00 +2°C° 0 mm 1 mps 758 mmHg 91%
    06:00 +2°C° 0 mm 1 mps 758 mmHg 92%
    07:00 +2°C° 0.1 mm 1 mps 758 mmHg 93%
    08:00 +3°C° 0.1 mm 1 mps 759 mmHg 93%
    09:00 +3°C° 0.1 mm 1 mps 760 mmHg 94%
    10:00 +3°C° 0.1 mm 2 mps 760 mmHg 93%
    11:00 +3°C° 0.1 mm 3 mps 761 mmHg 91%
    12:00 +4°C° 0.1 mm 3 mps 762 mmHg 90%
    13:00 +4°C° 0 mm 3 mps 762 mmHg 86%
    14:00 +4°C° 0 mm 3 mps 763 mmHg 82%
    15:00 +4°C° 0 mm 3 mps 763 mmHg 78%
    16:00 +4°C° 0 mm 2 mps 764 mmHg 80%
    17:00 +3°C° 0 mm 2 mps 765 mmHg 82%
    18:00 +2°C° 0 mm 2 mps 765 mmHg 84%
    19:00 +2°C° 0 mm 1 mps 766 mmHg 84%
    20:00 +2°C° 0 mm 1 mps 766 mmHg 83%
    21:00 +2°C° 0 mm 1 mps 767 mmHg 83%
    22:00 +2°C° 0 mm 1 mps 767 mmHg 83%
    23:00 +2°C° 0 mm 1 mps 767 mmHg 82%

    Tomorrow, 21 January, Monday

    Time Temperature Precipitation Wind Pressure Humidity
    00:00 +2°C° 0 mm 1 mps 767 mmHg 82%
    01:00 +2°C° 0 mm 1 mps 766 mmHg 83%
    02:00 +2°C° 0 mm 1 mps 766 mmHg 84%
    03:00 +1°C° 0 mm 2 mps 766 mmHg 85%
    04:00 +1°C° 0 mm 2 mps 765 mmHg 86%
    05:00 +1°C° 0 mm 2 mps 765 mmHg 87%
    06:00 +1°C° 0 mm 2 mps 764 mmHg 88%
    07:00 0°C° 0 mm 3 mps 763 mmHg 87%
    08:00 +1°C° 0 mm 3 mps 763 mmHg 87%
    09:00 0°C° 0 mm 4 mps 762 mmHg 87%
    10:00 +1°C° 0 mm 4 mps 761 mmHg 83%
    11:00 +2°C° 0 mm 5 mps 760 mmHg 78%
    12:00 +2°C° 0 mm 6 mps 759 mmHg 73%
    13:00 +2°C° 0 mm 6 mps 757 mmHg 73%
    14:00 +2°C° 0 mm 6 mps 755 mmHg 73%
    15:00 +2°C° 0 mm 7 mps 753 mmHg 72%
    16:00 +2°C° 1 mm 7 mps 752 mmHg 76%
    17:00 +2°C° 1 mm 7 mps 750 mmHg 80%
    18:00 +1°C° 1 mm 8 mps 749 mmHg 84%
    19:00 +2°C° 1.2 mm 6 mps 748 mmHg 83%
    20:00 +1°C° 1.2 mm 5 mps 747 mmHg 83%
    21:00 +1°C° 1.2 mm 4 mps 746 mmHg 82%
    22:00 0°C° 0.1 mm 4 mps 746 mmHg 83%
    23:00 +1°C° 0.1 mm 3 mps 746 mmHg 83%

    Day after tomorrow, 22 January, Tuesday

    Time Temperature Precipitation Wind Pressure Humidity
    00:00 0°C° 0.1 mm 3 mps 745 mmHg 83%
    01:00 0°C° 0.2 mm 3 mps 745 mmHg 83%
    02:00 +1°C° 0.2 mm 3 mps 744 mmHg 83%
    03:00 +1°C° 0.2 mm 3 mps 744 mmHg 83%
    04:00 0°C° 0.1 mm 3 mps 744 mmHg 83%
    05:00 0°C° 0.1 mm 3 mps 744 mmHg 83%
    06:00 0°C° 0.1 mm 3 mps 743 mmHg 83%
    07:00 -1°C° 0 mm 4 mps 744 mmHg 84%
    08:00 -1°C° 0 mm 4 mps 744 mmHg 85%
    09:00 -1°C° 0 mm 4 mps 744 mmHg 85%
    10:00 -1°C° 0 mm 4 mps 744 mmHg 82%
    11:00 0°C° 0 mm 4 mps 744 mmHg 79%
    12:00 0°C° 0 mm 5 mps 745 mmHg 75%
    13:00 0°C° 0 mm 4 mps 745 mmHg 75%
    14:00 0°C° 0 mm 4 mps 745 mmHg 75%
    15:00 0°C° 0 mm 4 mps 745 mmHg 75%
    16:00 -1°C° 0 mm 4 mps 746 mmHg 76%
    17:00 0°C° 0 mm 3 mps 746 mmHg 77%
    18:00 -1°C° 0 mm 3 mps 746 mmHg 78%
    19:00 -1°C° 0 mm 3 mps 747 mmHg 78%
    20:00 -1°C° 0 mm 3 mps 747 mmHg 77%
    21:00 -1°C° 0 mm 2 mps 747 mmHg 77%
    22:00 -1°C° 0 mm 2 mps 748 mmHg 77%
    23:00 -1°C° 0 mm 2 mps 748 mmHg 78%

    23 January, Wednesday

    Time Temperature Precipitation Wind Pressure Humidity
    00:00 -1°C° 0 mm 2 mps 748 mmHg 78%
    01:00 -1°C° 0 mm 2 mps 748 mmHg 77%
    02:00 -1°C° 0 mm 3 mps 748 mmHg 77%
    03:00 -1°C° 0 mm 3 mps 748 mmHg 76%
    04:00 -1°C° 0 mm 3 mps 748 mmHg 76%
    05:00 -1°C° 0 mm 3 mps 749 mmHg 76%
    06:00 -1°C° 0 mm 3 mps 749 mmHg 76%
    07:00 0°C° 0 mm 3 mps 749 mmHg 77%
    08:00 0°C° 0 mm 3 mps 750 mmHg 77%
    09:00 0°C° 0 mm 3 mps 750 mmHg 78%
    10:00 0°C° 0 mm 4 mps 750 mmHg 77%
    11:00 +1°C° 0 mm 4 mps 750 mmHg 75%
    12:00 +3°C° 0 mm 4 mps 750 mmHg 74%
    13:00 +3°C° 0 mm 4 mps 751 mmHg 75%
    14:00 +3°C° 0 mm 4 mps 751 mmHg 75%
    15:00 +3°C° 0 mm 4 mps 751 mmHg 76%
    16:00 +1°C° 0 mm 4 mps 752 mmHg 77%
    17:00 +1°C° 0 mm 3 mps 752 mmHg 79%
    18:00 +1°C° 0 mm 3 mps 752 mmHg 80%
    19:00 +1°C° 0 mm 3 mps 753 mmHg 81%
    20:00 +1°C° 0 mm 3 mps 753 mmHg 82%
    21:00 0°C° 0 mm 3 mps 754 mmHg 82%
    22:00 0°C° 0 mm 3 mps 754 mmHg 84%
    23:00 0°C° 0 mm 3 mps 755 mmHg 85%

    24 January, Thursday

    Time Temperature Precipitation Wind Pressure Humidity
    00:00 0°C° 0 mm 3 mps 755 mmHg 87%
    01:00 0°C° 0 mm 3 mps 755 mmHg 88%
    02:00 +1°C° 0 mm 2 mps 756 mmHg 89%
    03:00 +1°C° 0 mm 2 mps 756 mmHg 91%
    04:00 +2°C° 0 mm 1 mps 756 mmHg 91%
    05:00 +2°C° 0 mm 1 mps 757 mmHg 91%
    06:00 +2°C° 0 mm 1 mps 757 mmHg 91%
    07:00 +1°C° 0 mm 0 mps 758 mmHg 91%
    08:00 +1°C° 0 mm 0 mps 758 mmHg 91%
    09:00 +1°C° 0 mm 0 mps 758 mmHg 90%
    10:00 +2°C° 0 mm 0 mps 758 mmHg 88%
    11:00 +3°C° 0 mm 0 mps 758 mmHg 86%
    12:00 +4°C° 0 mm 0 mps 759 mmHg 84%
    13:00 +4°C° 0.1 mm 0 mps 759 mmHg 85%
    14:00 +5°C° 0.1 mm 1 mps 759 mmHg 85%
    15:00 +5°C° 0.1 mm 1 mps 759 mmHg 86%
    16:00 +5°C° 0.1 mm 1 mps 759 mmHg 87%
    17:00 +4°C° 0.1 mm 1 mps 759 mmHg 89%
    18:00 +3°C° 0.1 mm 2 mps 759 mmHg 90%
    19:00 +3°C° 0.1 mm 2 mps 759 mmHg 92%
    20:00 +4°C° 0.1 mm 2 mps 760 mmHg 94%
    21:00 +4°C° 0.1 mm 2 mps 760 mmHg 95%
    22:00 +4°C° 0 mm 2 mps 760 mmHg 96%
    23:00 +5°C° 0 mm 2 mps 760 mmHg 97%

    25 January, Friday

    Time Temperature Precipitation Wind Pressure Humidity
    00:00 +5°C° 0 mm 2 mps 760 mmHg 98%
    01:00 +5°C° 0 mm 2 mps 760 mmHg 98%
    02:00 +6°C° 0 mm 2 mps 760 mmHg 98%
    03:00 +6°C° 0 mm 2 mps 760 mmHg 99%
    04:00 +6°C° 0 mm 2 mps 760 mmHg 98%
    05:00 +7°C° 0 mm 3 mps 760 mmHg 98%
    06:00 +7°C° 0 mm 3 mps 760 mmHg 98%
    07:00 +7°C° 0 mm 3 mps 760 mmHg 98%
    08:00 +6°C° 0 mm 4 mps 760 mmHg 97%
    09:00 +6°C° 0 mm 4 mps 761 mmHg 97%
    10:00 +6°C° 0 mm 4 mps 760 mmHg 95%
    11:00 +6°C° 0 mm 4 mps 760 mmHg 94%
    12:00 +7°C° 0 mm 4 mps 760 mmHg 92%
    13:00 +7°C° 0 mm 4 mps 760 mmHg 91%
    14:00 +7°C° 0 mm 5 mps 759 mmHg 90%
    15:00 +7°C° 0 mm 5 mps 759 mmHg 88%
    16:00 +7°C° 0.3 mm 5 mps 759 mmHg 90%
    17:00 +7°C° 0.3 mm 5 mps 758 mmHg 91%
    18:00 +7°C° 0.3 mm 5 mps 758 mmHg 92%
    19:00 +7°C° 0.6 mm 5 mps 758 mmHg 93%
    20:00 +7°C° 0.6 mm 6 mps 758 mmHg 93%
    21:00 +7°C° 0.6 mm 6 mps 757 mmHg 94%
    22:00 +7°C° 0.2 mm 5 mps 757 mmHg 95%
    23:00 +7°C° 0.2 mm 5 mps 756 mmHg 95%
    Show more